Location: Buchdorf
(48.7842°N, 10.8275°E)
Time: 00:00:57
(UTC+00:00)

CZ-2C R/B - Pass Details

Date: 09 April 2020
Orbit: 639 x 705 km, 98.4° (Epoch: 04 June)

Event Time Altitude Azimuth Distance (km) Brightness Sun altitude
Rises 18:47:39 0° 20° (NNE) 3,085 7.2 -8.3°
Reaches altitude 10° 18:50:03 10° 27° (NNE) 2,154 6.3 -8.7°
Maximum altitude 18:54:30 41° 98° (E) 985 4.1 -9.3°
Drops below altitude 10° 18:58:51 10° 169° (S) 2,099 5.9 -10.0°
Sets 19:01:09 0° 177° (S) 2,997 6.8 -10.3°
